Location: Newark
(59.4564°N, 26.6917°E)
Time: 18:23:42
(UTC+00:00)

Altair - All Passes

Search period start: 21 November 2019 00:00
Search period end: 01 December 2019 00:00
Orbit: 1502 x 1682 km, 47.2° (Epoch: 20 November)

Date Brightness Start Highest point End Pass type
(mag) Time Alt. Az. Time Alt. Az. Time Alt. Az.
21 Nov - 01:16:11 10° SSW 01:23:40 29° SSE 01:31:12 10° E visible
21 Nov - 03:18:21 10° WSW 03:26:34 39° S 03:34:55 10° ESE visible
21 Nov - 05:21:47 10° W 05:29:34 32° SSW 05:37:31 10° SE visible
21 Nov - 07:26:47 10° W 07:31:54 16° SW 07:37:06 10° S daylight
21 Nov - 22:53:49 10° SSE 22:56:40 12° SE 22:59:31 10° ESE visible
22 Nov - 00:51:18 10° SSW 00:58:40 28° SSE 01:06:03 10° E visible
22 Nov - 02:53:19 10° WSW 03:01:31 39° S 03:09:50 10° ESE visible
22 Nov - 04:56:41 10° W 05:04:32 33° SSW 05:12:32 10° SE visible
22 Nov - 07:01:28 10° W 07:06:56 17° SW 07:12:29 10° S daylight
22 Nov - 22:30:03 10° SE 22:31:44 11° SE 22:33:25 10° ESE visible
23 Nov - 00:26:25 10° SSW 00:33:40 27° SSE 00:40:55 10° E visible
23 Nov - 02:28:17 10° WSW 02:36:29 38° S 02:44:46 10° ESE visible
23 Nov - 04:31:36 10° WSW 04:39:31 34° SSW 04:47:33 10° SE visible
23 Nov - 06:36:12 10° W 06:41:58 19° SW 06:47:50 10° S daylight
24 Nov - 00:01:34 10° SSW 00:08:40 26° SSE 00:15:46 10° E visible
24 Nov - 02:03:16 10° SW 02:11:26 38° S 02:19:41 10° ESE visible
24 Nov - 04:06:30 10° WSW 04:14:29 35° SSW 04:22:34 10° SE visible
24 Nov - 06:10:57 10° W 06:16:59 20° SW 06:23:08 10° S daylight
24 Nov - 23:36:44 10° SSW 23:43:40 25° SSE 23:50:35 10° E visible
25 Nov - 01:38:15 10° SW 01:46:24 38° S 01:54:36 10° ESE visible
25 Nov - 03:41:25 10° WSW 03:49:26 36° SSW 03:57:34 10° SE visible
25 Nov - 05:45:44 10° W 05:52:01 21° SW 05:58:23 10° S daylight
25 Nov - 23:11:55 10° SSW 23:18:40 24° SE 23:25:25 10° E visible
26 Nov - 01:13:14 10° SW 01:21:21 37° S 01:29:31 10° ESE visible
26 Nov - 03:16:21 10° WSW 03:24:24 36° SSW 03:32:33 10° SE visible
26 Nov - 05:20:32 10° W 05:27:02 22° SW 05:33:37 10° S visible
26 Nov - 22:47:08 10° S 22:53:42 22° SE 23:00:14 10° E visible
27 Nov - 00:48:14 10° SW 00:56:19 36° SSE 01:04:25 10° ESE visible
27 Nov - 02:51:16 10° WSW 02:59:22 37° SSW 03:07:32 10° SE visible
27 Nov - 04:55:21 10° W 05:02:03 23° SW 05:08:50 10° SSE visible
27 Nov - 22:22:22 10° S 22:28:43 21° SE 22:35:02 10° E visible
28 Nov - 00:23:14 10° SW 00:31:17 36° SSE 00:39:20 10° ESE visible
28 Nov - 02:26:12 10° WSW 02:34:19 37° S 02:42:32 10° SE visible
28 Nov - 04:30:11 10° W 04:37:03 24° SSW 04:44:00 10° SSE visible
28 Nov - 21:57:37 10° S 22:03:45 20° SE 22:09:48 10° E visible
28 Nov - 23:58:15 10° SW 00:06:15 35° SSE 00:14:14 10° ESE visible
29 Nov - 02:01:07 10° WSW 02:09:17 38° S 02:17:30 10° SE visible
29 Nov - 04:05:02 10° W 04:12:04 26° SSW 04:19:09 10° SSE visible
29 Nov - 21:32:56 10° S 21:38:46 19° SE 21:44:34 10° E night (unlit)
29 Nov - 23:33:16 10° SW 23:41:14 34° SSE 23:49:09 10° ESE visible
30 Nov - 01:36:03 10° WSW 01:44:15 38° S 01:52:28 10° ESE visible
30 Nov - 03:39:53 10° W 03:47:04 27° SSW 03:54:18 10° SSE visible
30 Nov - 05:47:56 10° WSW 05:48:59 10° SW 05:50:01 10° SW visible
30 Nov - 21:08:16 10° S 21:13:48 18° SE 21:19:17 10° E night (unlit)
30 Nov - 23:08:17 10° SW 23:16:12 33° SSE 23:24:03 10° ESE visible
